Location: Caltech
(34.1382°N, 118.1253°W)
Time: 18:18:56
(UTC-07:00)

Iridium 12 - Visible Passes

Search period start: 20 October 2017 00:00
Search period end: 30 October 2017 00:00
Orbit: 776 x 779 km, 86.4° (Epoch: 20 October)

Date Brightness Start Highest point End Pass type
(mag) Time Alt. Az. Time Alt. Az. Time Alt. Az.
20 Oct 5.6 06:29:57 10° N 06:35:11 87° E 06:40:23 10° S visible
20 Oct 7.0 19:23:02 10° SSW 19:27:53 39° W 19:32:45 10° NNW visible
21 Oct 6.8 05:56:38 10° NNE 06:01:37 44° E 06:06:34 10° SSE visible
21 Oct 5.7 18:49:06 10° S 18:54:18 77° W 18:59:32 10° N visible
22 Oct 8.0 05:23:49 10° NNE 05:27:56 23° E 05:32:02 10° SE visible
22 Oct 8.6 19:59:15 10° WSW 20:01:51 14° WNW 20:04:28 10° NW visible
23 Oct 8.7 04:52:14 10° NE 04:54:07 12° ENE 04:56:01 10° E visible
23 Oct 5.5 06:30:06 10° N 06:35:15 62° W 06:40:23 10° SSW visible
23 Oct 7.8 19:23:44 10° SW 19:28:05 26° W 19:32:26 10° NNW visible
24 Oct 5.9 05:56:33 10° N 06:01:45 67° E 06:06:56 10° S visible
24 Oct 6.5 18:49:22 10° SSW 18:54:25 51° W 18:59:30 10° N visible
25 Oct 7.2 05:23:25 10° NNE 05:28:09 34° E 05:32:52 10° SSE visible
26 Oct 8.2 04:50:54 10° NE 04:54:25 18° E 04:57:56 10° ESE visible
26 Oct 5.9 06:30:24 10° NNW 06:35:16 41° W 06:40:08 10° SSW visible
26 Oct 8.4 19:24:50 10° WSW 19:28:19 18° W 19:31:49 10° NW visible
27 Oct 5.4 05:56:37 10° N 06:01:51 82° W 06:07:03 10° S visible
27 Oct 7.4 18:49:54 10° SSW 18:54:35 34° W 18:59:19 10° NNW visible
28 Oct 6.4 05:23:14 10° N 05:28:19 51° E 05:33:23 10° SSE visible
29 Oct 7.6 04:50:18 10° NNE 04:54:40 27° E 04:59:01 10° SE visible
29 Oct 6.4 06:30:53 10° NNW 06:35:16 28° W 06:39:38 10° SW visible
29 Oct 8.7 19:26:46 10° W 19:28:37 12° WNW 19:30:29 10° NW visible
